Flag for U.S.A. Weather past 2 weeks in Sitka, Alaska, U.S.A.

Now
43 °F

Light rain. Overcast.


Feels Like: 36 °F
Forecast: 37 / 42 °F
Wind: 14 mph from Southeast

Location: Sitka Airport

Current Time: Dec 18, 2014 at 11:20:57 PM

Latest Report: Dec 18, 2014 at 10:53 PM


Visibility: 10 mi

Pressure: 29.25 "Hg

Humidity: 65%

Dew point: 32 °F

Location of SitkaLocation

Historic Weather in Sitka — Graph

°F

Sitka temperature yesterday

Maximum temperature yesterday: 43 °F (at 7:53 PM)
Minimum temperature yesterday: 34 °F (at 5:53 AM)
Average temperature yesterday: 39 °F

Past Weeks' High & Low Weather Summary

 TemperatureHumidityPressure
High52 °F (Dec 8, 5:53 AM)100% (Dec 3, 9:53 PM)29.96 "Hg (Dec 3, 9:53 PM)
Low29 °F (Dec 3, 11:53 PM)41% (Dec 15, 9:53 AM)28.74 "Hg (Dec 9, 1:53 PM)
Average42 °F79%29.46 "Hg
* Reported Dec 3 9:53 PM — Dec 18 9:53 PM, Sitka, Weather by CustomWeather, © 2014

Note: Actual official high and low records may vary slightly from our data, if they occured in-between our weather recording intervals... More about our weather records

Advertising

Sitka weather history for previous 24 hours

 ConditionsComfort  
Time TempWeatherWind HumidityBarometerVisibility
9:53 PM
Dec 18
44 °FLight rain. Overcast.12 mph65%29.24 "Hg10 mi
8:53 PM44 °FOvercast.7 mph63%29.24 "Hg10 mi
7:53 PM45 °FMostly cloudy.16 mph58%29.23 "Hg10 mi
6:53 PM45 °FOvercast.17 mph58%29.23 "Hg10 mi
5:53 PM45 °FMostly cloudy.18 mph58%29.22 "Hg10 mi
4:53 PM45 °FOvercast.17 mph58%29.21 "Hg10 mi
3:53 PM44 °FOvercast.17 mph63%29.20 "Hg10 mi
2:53 PM44 °FOvercast.21 mph65%29.20 "Hg10 mi
1:53 PM45 °FOvercast.18 mph56%29.19 "Hg10 mi
12:53 PM45 °FOvercast.18 mph58%29.21 "Hg10 mi
11:53 AM45 °FOvercast.13 mph58%29.23 "Hg10 mi
10:53 AM44 °FOvercast.17 mph63%29.26 "Hg10 mi
9:53 AM44 °FMostly cloudy.9 mph63%29.29 "Hg10 mi
8:53 AM43 °FOvercast.18 mph62%29.33 "Hg10 mi
7:53 AM43 °FMostly cloudy.16 mph60%29.36 "Hg10 mi
6:53 AM43 °FOvercast.15 mph56%29.38 "Hg10 mi
5:53 AM43 °FClear.20 mph58%29.41 "Hg10 mi
4:53 AM42 °FPassing clouds.13 mph57%29.44 "Hg10 mi
3:53 AM42 °FClear.14 mph60%29.46 "Hg10 mi
2:53 AM42 °FMostly cloudy.13 mph57%29.48 "Hg10 mi
1:53 AM41 °FPassing clouds.7 mph60%29.50 "Hg10 mi
12:53 AM42 °FPassing clouds.14 mph55%29.52 "Hg10 mi
11:53 PM
Dec 17
43 °FOvercast.16 mph58%29.54 "Hg10 mi
Weather by CustomWeather, © 2014

See weather overviewHow to use our weather pages